Regional Weather Roundup
Issued by NWS Jackson, KY

Home | Current Version | Previous Version | Graphics & Text | Print | Product List | Glossary On
Versions: 1 2 3 4 5 6 7 8 9 10 11 12 13 14 15 16 17 18 19 20 21 22 23 24 25 26 27
000
ASUS43 KJKL 271110
RWRJKL

EAST KENTUCKY HOURLY WEATHER ROUNDUP
NATIONAL WEATHER SERVICE JACKSON KY
700 AM EDT SAT MAY 27 2017

NOTE: "FAIR" INDICATES FEW OR NO CLOUDS BELOW 12,000 FEET WITH
NO SIGNIFICANT WEATHER AND/OR OBSTRUCTIONS TO VISIBILITY.

* THESE REPORTS ARE NOT UNDER NWS QUALITY CONTROL AND MAY NOT
  REPORT WEATHER SUCH AS PRECIPITATION AND FOG.

KYZ079-080-083-085-087-088-110-112-115-119-120-271200
...EASTERN KENTUCKY...

CITY           SKY/WX    TMP DP  RH WIND       PRES   REMARKS
JACKSON        CLOUDY    69  60  73 VRB3      29.92R
LONDON         CLOUDY    72  59  63 SW7       29.93S
SOMERSET*      CLOUDY    68  59  73 CALM      29.93S
MONTICELLO*    CLOUDY    71  62  73 W12       29.94R
WILLIAMSBURG*  CLOUDY    72  61  68 SW5       29.94R
MIDDLESBORO*   CLOUDY    64  63  96 CALM      29.97S
HARLAN APT*    CLOUDY    63  59  88 CALM      29.97S
PIKE CO APT*   CLOUDY    70  60  71 S6        29.92S
BIG SANDY APT* CLOUDY    71  60  70 SW5       29.91S
MOREHEAD APT*  CLOUDY    70  61  73 SW10      29.90R
ASHLAND*       CLOUDY    66  63  88 CALM      29.84S
$$

KYZ035-036-041-042-044-050-067-078-099-271200
...CENTRAL KENTUCKY...

CITY           SKY/WX    TMP DP  RH WIND       PRES   REMARKS
MT STERLING*   CLOUDY    68  63  83 W7        29.91R
FLEMING/MASON* CLOUDY    67  64  87 SW9       29.89R
DANVILLE*      CLOUDY    70  61  73 SW7       29.92R
LEXINGTON      CLOUDY    70  61  73 SW7       29.89S
FRANKFORT      CLOUDY    70  62  76 SW5       29.87R
LOUISVILLE     LGT RAIN  73  67  81 W5        29.86S
LEBANON*       CLOUDY    72  63  73 CALM      29.90R
GLASGOW*       CLOUDY    70  62  75 CALM      29.91R
BOWLING GREEN  CLOUDY    74  64  71 SW7       29.90R
$$

KYZ091>093-OHZ055-061-077-WVZ005-015-034-035-042-271200
...SOUTHERN OHIO/WEST VIRGINIA...

CITY           SKY/WX    TMP DP  RH WIND       PRES   REMARKS
COVINGTON      CLOUDY    70  65  84 SW7       29.85R
COLUMBUS       PTCLDY    64  63  96 E6        29.84S
DAYTON         CLOUDY    66  63  90 SW3       29.85R
WILMINGTON     CLOUDY    67  65  93 SW7       29.84R
HUNTINGTON     CLOUDY    68  59  73 S7        29.87R
CHARLESTON     CLOUDY    64  58  80 SE3       29.88R
PINEVILLE*     CLOUDY    57  56  97 MISG      30.01S
BECKLEY        CLOUDY    62  56  80 SW5       29.98R
BLUEFIELD      CLEAR     62  56  80 W9        30.01R
LOGAN CO APT*  CLOUDY    66  59  77 CALM      29.93S
$$

VAZ002-007-008-TNZ017-027-036-066-071-271200
...SOUTHWEST VIRGINIA/EAST TENNESSEE...

CITY           SKY/WX    TMP DP  RH WIND       PRES   REMARKS
WISE*          CLOUDY    64  57  77 SW5       30.02F
JONESVILLE*      N/A     61  59  94 CALM      30.00S
ABINGDON*      MOCLDY    59  58  97 CALM      30.02S
BRISTOL        MOCLDY    59  57  93 CALM      30.00R
MORRISTOWN*    PTSUNNY   63  61  94 CALM      29.97R
SEVIERVILLE*   MOSUNNY   64  59  82 CALM      29.96S
LAFOLLETTE*    MOSUNNY   61  59  94 CALM      29.99S FOG
OAK RIDGE      MOCLDY    65  61  87 CALM      29.98S
CROSSVILLE     CLOUDY    65  59  81 CALM      29.99S
NASHVILLE      MOCLDY    69  62  78 S5        29.92R
$$

...KEY TO REMARKS...
VSB - VISIBILITY IN MILES
WCI - WIND CHILL INDEX
HX  - HEAT INDEX

$$




USA.gov is the U.S. government's official web portal to all federal, state and local government web resources and services.